This demonstration page uses our WeatherBlox Daily Observations layout. Learn more.

Left ArrowRight Arrow

Hourly Observations for June 8, 2020

Temp ( °F °C ) Dew Point ( °F °C ) Humidity (%) Winds ( mph kmh ) Pressure ( in mb ) Visibility ( mi km ) Precip ( " mm )
12:53 am 00:53 Clear 85 29.4 53 11.7 33 33 SSE 14 22 29.57 1002 10 16 0.00 0.00
1:53 am 01:53 Clear 82 27.8 53 11.7 37 37 SE 9 15 29.57 1001 10 16 0.00 0.00
2:53 am 02:53 Clear 79 26.1 52 11.1 39 39 SE 7 11 29.56 1001 10 16 0.00 0.00
3:53 am 03:53 Clear 76 24.4 52 11.1 43 43 ESE 5 7 29.56 1001 10 16 0.00 0.00
4:53 am 04:53 Clear 76 24.4 52 11.1 43 43 ESE 12 19 29.55 1001 10 16 0.00 0.00
5:53 am 05:53 Clear 76 24.4 53 11.7 45 45 ESE 10 17 29.55 1001 10 16 0.00 0.00
6:53 am 06:53 Sunny 75 23.9 55 12.8 50 50 ESE 10 17 29.57 1001 10 16 0.00 0.00
7:53 am 07:53 Sunny 76 24.4 56 13.3 50 50 Calm 29.59 1002 10 16 0.00 0.00
8:53 am 08:53 Sunny 80 26.7 57 13.9 45 45 Calm 29.61 1003 10 16 0.00 0.00
9:53 am 09:53 Sunny 85 29.4 54 12.2 35 35 WNW 7 11 29.61 1003 N/A 0.00 0.00
10:53 am 10:53 Sunny 93 33.9 45 7.2 19 19 WNW 14 22 29.60 1002 N/A 0.00 0.00
11:53 am 11:53 Sunny 96 35.6 43 6.1 16 16 W 14 22 29.59 1002 N/A 0.00 0.00
12:53 pm 12:53 Sunny 98 36.7 39 3.9 13 13 VRB 3 6 29.59 1002 N/A 0.00 0.00
1:53 pm 13:53 Sunny 100 37.8 36 2.2 11 11 WSW 13 20 29.57 1002 N/A 0.00 0.00
2:53 pm 14:53 Sunny 103 39.4 36 2.2 10 10 W 21 33 29.55 1001 N/A 0.00 0.00
3:53 pm 15:53 Sunny 101 38.3 39 3.9 12 12 WNW 12 19 29.53 1000 N/A 0.00 0.00
4:53 pm 16:53 Sunny 103 39.4 39 3.9 11 11 W 10 17 29.51 999 N/A 0.00 0.00
5:53 pm 17:53 Sunny 103 39.4 39 3.9 11 11 W 16 26 29.48 998 N/A 0.00 0.00
6:53 pm 18:53 Sunny 102 38.9 40 4.4 12 12 W 18 30 29.47 998 N/A 0.00 0.00
7:53 pm 19:53 Sunny 100 37.8 40 4.4 13 13 W 18 30 29.48 998 N/A 0.00 0.00
8:53 pm 20:53 Sunny 96 35.6 41 5 15 15 W 18 30 29.49 999 N/A 0.00 0.00
9:53 pm 21:53 Clear 93 33.9 43 6.1 18 18 W 20 31 29.50 999 N/A 0.00 0.00
10:53 pm 22:53 Clear 90 32.2 42 5.6 19 19 W 12 19 29.53 1000 N/A 0.00 0.00
11:53 pm 23:53 Clear 90 32.2 40 4.4 17 17 W 16 26 29.54 1000 N/A 0.00 0.00

Powered by AerisWeather